SENTINEL-3A

Last updated on Sun Jun 21 2026 00:02:46 GMT+0000 (Coordinated Universal Time)

1 41335U 16011A 26171.44253080 .00000048 00000+0 37722-4 0 9994 2 41335 98.6248 238.7795 0001418 99.3701 260.7640 14.26733412538520
UTC large
Height (km)
Speed (km/s)
/
Latitude / Longitude
Inclination (degrees)
Orbital Period (minutes)
Azimuth
Elevation
Range (km)
Doppler Factor

Next 0 passes for location: London (51.5072 / 0.1276)

No passes found over London.
SENTINEL-3A